(321397) = 2009 PF16

Discovered at Kitt Peak on 2009-08-15 by Spacewatch.

Orbit

Orbit type: Main Belt

Note: WebGL enabled browser required.

epoch2024-03-31.0
epoch JD2460400.5
perihelion date2020-03-13.95471
perihelion JD2458922.45472
argument of perihelion (°)329.00790
ascending node (°)346.88880
inclination (°)4.37497
eccentricity0.1186677
perihelion distance (AU)2.7611529
Tisserand w.r.t. Jupiter3.2
ΔV w.r.t. Earth (km/sec)10.4
semimajor axis (AU)3.1329304
mean anomaly (°)262.70340
mean daily motion (°/day)0.17773700
aphelion distance (AU)3.505
period (years)5.55
P-vector [x]0.71842663
P-vector [y]-0.62156008
P-vector [z]-0.31229193
Q-vector [x]0.69538748
Q-vector [y]0.63058743
Q-vector [z]0.34466759
absolute magnitude16.27
phase slope0.15
uncertainty0
referenceE2024-H23
observations used273
oppositions14
arc length (days)7087
first opposition used2004
last opposition used2024
residual rms (arc-secs)0.69
perturbers coarse indicatorM-v
perturbers precise indicator003Ek
first observation date used2004-11-20.0
last observation date used2024-04-16.0
computer nameMPCLINUX
JD of orbit computation2456909.194113
perihelion JD uncertainty (days)1.1126E-04
argument of perihelion uncertainty (°)5.8085E-05
ascending node uncertainty (°)5.1850E-05
inclination uncertainty (°)5.6790E-06
eccentricity uncertainty 1.0290E-07
perihelion distance uncertainty (AU)3.7273E-07
Minimum Orbit Intersection Distances (in AU)
for orbit epoch: 2460400.5, reference: E2024-H23
Mercury2.33181
Venus2.03302
Earth1.74866
Mars1.36759
Jupiter1.77433
Saturn5.62111
Uranus14.9692
Neptune26.6447

Observations

263 total observations over interval: 2004 11 20.21604 – 2024 03 19.535027
These data are available for download (format description).

Date (UT) J2000 RA J2000 Dec Magn Location Ref
2004 11 20.21604 03 11 44.52 +23 56 27.4 20.6 V 691 – Steward Observatory, Kitt Peak-Spacewatch MPS 297817
2004 11 20.24313 03 11 43.08 +23 56 22.2 20.5 V 691 – Steward Observatory, Kitt Peak-Spacewatch MPS 297817
2004 11 20.27056 03 11 41.61 +23 56 16.9 20.5 V 691 – Steward Observatory, Kitt Peak-Spacewatch MPS 297817
2006 01 28.26306 08 10 08.90 +24 30 37.9 20.9 V G96 – Mt. Lemmon Survey MPS 297817
2006 01 28.26837 08 10 08.65 +24 30 37.8 21.6 V G96 – Mt. Lemmon Survey MPS 297817
2006 01 28.27366 08 10 08.40 +24 30 38.7 21.2 V G96 – Mt. Lemmon Survey MPS 297817
2006 01 28.27895 08 10 08.11 +24 30 39.8 21.2 V G96 – Mt. Lemmon Survey MPS 297817
2007 03 11.37916 12 10 46.12 -02 36 43.9 22.0 V G96 – Mt. Lemmon Survey MPS 297817
2007 03 11.38653 12 10 45.80 -02 36 42.8 20.8 V G96 – Mt. Lemmon Survey MPS 297817
2007 03 11.39390 12 10 45.44 -02 36 40.8 22.2 V G96 – Mt. Lemmon Survey MPS 297817
2007 03 11.40129 12 10 45.12 -02 36 39.2 20.2 V G96 – Mt. Lemmon Survey MPS 297817
2007 04 20.20828 11 43 07.57 -00 13 33.2 21.1 V G96 – Mt. Lemmon Survey MPS 297817
2007 04 20.21388 11 43 07.39 -00 13 32.4 20.8 V G96 – Mt. Lemmon Survey MPS 297817
2007 04 20.21953 11 43 07.21 -00 13 30.9 21.6 V G96 – Mt. Lemmon Survey MPS 297817
2007 04 20.22505 11 43 07.03 -00 13 31.3 22.0 V G96 – Mt. Lemmon Survey MPS 297817
2009 08 15.44701 00 41 40.40 +05 29 01.6 20.5 V 691 – Steward Observatory, Kitt Peak-Spacewatch MPS 292697
2009 08 15.46461 00 41 40.18 +05 29 02.9 20.7 V 691 – Steward Observatory, Kitt Peak-Spacewatch MPS 292697
2009 08 15.48223 00 41 39.95 +05 29 03.0 20.8 V 691 – Steward Observatory, Kitt Peak-Spacewatch MPS 292697
2009 08 19.39049 00 40 51.66 +05 30 56.1 20.7 V 691 – Steward Observatory, Kitt Peak-Spacewatch MPS 292697
2009 08 19.40887 00 40 51.34 +05 30 56.0 21.1 V 691 – Steward Observatory, Kitt Peak-Spacewatch MPS 292697
2009 08 19.42702 00 40 51.04 +05 30 55.7 21.0 V 691 – Steward Observatory, Kitt Peak-Spacewatch MPS 292697
2009 09 19.17071 00 23 57.56 +04 39 11.9   691 – Steward Observatory, Kitt Peak-Spacewatch MPS 297817
2009 09 19.19178 00 23 56.56 +04 39 08.0   691 – Steward Observatory, Kitt Peak-Spacewatch MPS 297817
2009 09 19.20940 00 23 55.75 +04 39 04.6   691 – Steward Observatory, Kitt Peak-Spacewatch MPS 297817
2009 09 27.28668 00 17 35.62 +04 11 26.9 19.8 V G96 – Mt. Lemmon Survey MPS 297817
2009 09 27.29442 00 17 35.23 +04 11 25.1 19.9 V G96 – Mt. Lemmon Survey MPS 297817
2009 09 27.30222 00 17 34.87 +04 11 23.5 19.8 V G96 – Mt. Lemmon Survey MPS 297817
2009 09 27.30984 00 17 34.47 +04 11 21.9 19.6 V G96 – Mt. Lemmon Survey MPS 297817
2010 01 12.07624 00 25 53.50 +05 48 10.2 22.1 V G96 – Mt. Lemmon Survey MPS 310307
2010 01 12.08196 00 25 53.83 +05 48 12.7 22.4 V G96 – Mt. Lemmon Survey MPS 310307
2010 01 12.08766 00 25 54.15 +05 48 15.3 21.5 V G96 – Mt. Lemmon Survey MPS 310307
2010 01 12.09337 00 25 54.48 +05 48 17.5 22.6 V G96 – Mt. Lemmon Survey MPS 310307
2010 01 12.09907 00 25 54.84 +05 48 18.7 22.0 V G96 – Mt. Lemmon Survey MPS 310307
2012 02 03.54360 10 15 26.656 +13 06 36.00 21.5 i F51 – Pan-STARRS 1, Haleakala MPS 410239
2012 02 03.55650 10 15 26.106 +13 06 38.43 21.3 i F51 – Pan-STARRS 1, Haleakala MPS 410239
2012 02 03.57482 10 15 25.314 +13 06 42.40 21.4 r F51 – Pan-STARRS 1, Haleakala MPS 410239
2012 02 03.58921 10 15 24.685 +13 06 44.88 21.5 r F51 – Pan-STARRS 1, Haleakala MPS 410239
2012 02 15.35409 10 06 30.316 +13 47 07.08 21.5 w F51 – Pan-STARRS 1, Haleakala MPS 411613
2012 02 15.36795 10 06 29.650 +13 47 09.86 21.4 w F51 – Pan-STARRS 1, Haleakala MPS 411613
2012 02 15.38181 10 06 28.969 +13 47 12.81 21.3 w F51 – Pan-STARRS 1, Haleakala MPS 411613
2012 02 15.39583 10 06 28.296 +13 47 15.79 21.4 w F51 – Pan-STARRS 1, Haleakala MPS 411613
2012 02 23.20401 10 00 16.20 +14 13 32.2 21.5 V G96 – Mt. Lemmon Survey MPS 425954
2012 02 23.21263 10 00 15.76 +14 13 33.6 21.4 V G96 – Mt. Lemmon Survey MPS 425954
2012 02 23.22134 10 00 15.33 +14 13 34.9 21.0 V G96 – Mt. Lemmon Survey MPS 425954
2012 02 23.23004 10 00 14.90 +14 13 37.2 21.3 V G96 – Mt. Lemmon Survey MPS 425954
2012 03 27.20833 09 39 44.20 +15 22 29.2 22.2 V G96 – Mt. Lemmon Survey MPS 420238
2012 03 27.21637 09 39 44.06 +15 22 28.9 21.1 V G96 – Mt. Lemmon Survey MPS 420238
2012 03 27.22449 09 39 43.88 +15 22 29.9 22.6 V G96 – Mt. Lemmon Survey MPS 420238
2012 03 27.23258 09 39 43.63 +15 22 29.4 21.5 V G96 – Mt. Lemmon Survey MPS 420238
2013 03 17.39548 14 24 13.35 -18 18 44.0 21.1 V G96 – Mt. Lemmon Survey MPS 461629
2013 03 17.40341 14 24 13.21 -18 18 43.4 21.3 V G96 – Mt. Lemmon Survey MPS 461629
2013 03 17.41132 14 24 13.10 -18 18 43.2 21.5 V G96 – Mt. Lemmon Survey MPS 461629
2013 03 17.41919 14 24 12.92 -18 18 43.5 21.5 V G96 – Mt. Lemmon Survey MPS 461629
2013 05 13.23990 13 45 38.70 -16 05 27.0 21.1 V G96 – Mt. Lemmon Survey MPS 468617
2013 05 13.24603 13 45 38.44 -16 05 25.7 20.4 V G96 – Mt. Lemmon Survey MPS 468617
2013 05 13.25178 13 45 38.23 -16 05 24.6 21.1 V G96 – Mt. Lemmon Survey MPS 468617
2013 05 13.25756 13 45 37.98 -16 05 23.0 20.2 V G96 – Mt. Lemmon Survey MPS 468617
2014 06 27.51592 21 11 42.170 -21 02 50.36 20.4 w F51 – Pan-STARRS 1, Haleakala MPS 521226
2014 06 27.52766 21 11 41.928 -21 02 51.56 20.4 w F51 – Pan-STARRS 1, Haleakala MPS 521226
2014 06 27.53935 21 11 41.688 -21 02 52.53 20.5 w F51 – Pan-STARRS 1, Haleakala MPS 521226
2014 06 27.55101 21 11 41.452 -21 02 53.66 20.5 w F51 – Pan-STARRS 1, Haleakala MPS 521226
2014 07 03.55609 21 09 23.435 -21 13 07.12 20.3 w F51 – Pan-STARRS 1, Haleakala MPS 522146
2014 07 03.56732 21 09 23.115 -21 13 08.33 20.4 w F51 – Pan-STARRS 1, Haleakala MPS 522146
2014 07 03.58974 21 09 22.453 -21 13 10.81 20.5 w F51 – Pan-STARRS 1, Haleakala MPS 522146
2014 07 25.44720 20 54 55.283 -22 01 25.35 19.8 w F51 – Pan-STARRS 1, Haleakala MPS 525362
2014 07 25.47120 20 54 54.055 -22 01 28.58 19.8 w F51 – Pan-STARRS 1, Haleakala MPS 525362
2014 07 27.38051 20 53 19.895 -22 05 38.35 19.7 w F51 – Pan-STARRS 1, Haleakala MPS 525362
2014 07 27.39268 20 53 19.265 -22 05 39.98 19.8 w F51 – Pan-STARRS 1, Haleakala MPS 525362
2014 07 27.40487 20 53 18.635 -22 05 41.59 19.7 w F51 – Pan-STARRS 1, Haleakala MPS 525362
2014 07 27.41704 20 53 18.001 -22 05 43.19 19.7 w F51 – Pan-STARRS 1, Haleakala MPS 525362
2014 07 29.38069 20 51 39.618 -22 09 51.20 19.8 w F51 – Pan-STARRS 1, Haleakala MPS 525362
2014 07 29.39283 20 51 38.984 -22 09 52.73 19.7 w F51 – Pan-STARRS 1, Haleakala MPS 525362
2014 07 29.40501 20 51 38.345 -22 09 54.36 19.7 w F51 – Pan-STARRS 1, Haleakala MPS 525362
2014 07 31.36819 20 49 59.043 -22 13 51.42 19.7 w F51 – Pan-STARRS 1, Haleakala MPS 525362
2014 07 31.40539 20 49 57.081 -22 13 56.05 19.7 w F51 – Pan-STARRS 1, Haleakala MPS 525362
2014 08 03.39072 20 47 25.290 -22 19 32.28 19.8 w F51 – Pan-STARRS 1, Haleakala MPS 526465
2014 08 03.40257 20 47 24.661 -22 19 33.60 19.7 w F51 – Pan-STARRS 1, Haleakala MPS 526465
2014 08 03.41441 20 47 24.035 -22 19 34.85 19.7 w F51 – Pan-STARRS 1, Haleakala MPS 526465
2014 08 03.42626 20 47 23.407 -22 19 36.12 19.7 w F51 – Pan-STARRS 1, Haleakala MPS 526465
2014 08 04.42501 20 46 32.688 -22 21 21.15 19.7 w F51 – Pan-STARRS 1, Haleakala MPS 526465
2014 08 04.43718 20 46 32.048 -22 21 22.42 19.7 w F51 – Pan-STARRS 1, Haleakala MPS 526465
2014 08 04.46158 20 46 30.760 -22 21 24.88 19.6 w F51 – Pan-STARRS 1, Haleakala MPS 526465
2014 08 16.37575 20 36 53.293 -22 36 29.79 19.8 i F51 – Pan-STARRS 1, Haleakala MPS 527943
2014 08 16.38767 20 36 52.732 -22 36 30.34 19.7 i F51 – Pan-STARRS 1, Haleakala MPS 527943
2014 08 16.39965 20 36 52.170 -22 36 30.82 19.7 i F51 – Pan-STARRS 1, Haleakala MPS 527943
2014 08 16.41159 20 36 51.603 -22 36 31.44 19.9 i F51 – Pan-STARRS 1, Haleakala MPS 527943
2015 09 09.52097 03 21 49.556 +22 37 22.88 21.4 w F51 – Pan-STARRS 1, Haleakala MPS 626519
2015 09 09.54454 03 21 49.812 +22 37 26.58 21.4 w F51 – Pan-STARRS 1, Haleakala MPS 626519
2015 09 09.55636 03 21 49.936 +22 37 28.78 21.4 w F51 – Pan-STARRS 1, Haleakala MPS 626519
2015 10 08.42729 03 17 34.371 +23 18 49.25 21.0 w F51 – Pan-STARRS 1, Haleakala MPS 630966
2015 10 08.43910 03 17 34.007 +23 18 49.45 20.9 w F51 – Pan-STARRS 1, Haleakala MPS 630966
